Wind_Speed
28 28 30 31 32 31 31 31 31 33 36 38 37 38 39 42 45 49 49 49 49 50 52 52 50 49 45 47 48 49 46 43 41 41 37 37 35 37 34 33 31 31 35
36 33 33 34 36 36 36 37 36 37 40 40 40 41 42 44 47 50 54 55 56 56 55 56 55 53 53 54 54 51 50 48 50 48 47 43 38 35 35 41 43 44 45
39 38 37 37 39 40 41 41 41 43 46 45 45 46 47 49 50 51 53 58 62 63 61 60 59 59 61 59 58 52 52 53 54 53 54 49 44 43 43 42 46 53 54
42 43 42 41 42 44 44 45 46 48 51 52 51 51 52 52 53 55 56 58 61 64 65 61 61 65 64 65 63 61 57 57 57 56 54 50 49 48 45 49 57 57 60
45 48 46 45 47 49 50 49 50 52 55 58 56 57 58 56 57 59 59 62 63 65 67 67 68 68 67 66 65 64 58 61 59 62 61 54 54 54 53 64 66 66 70
50 51 52 51 53 55 55 54 55 56 57 61 60 60 61 62 64 63 63 65 65 67 69 72 71 70 68 69 67 65 61 63 66 68 67 60 62 62 66 68 71 66 67
56 55 58 58 59 61 62 60 59 61 62 65 65 64 65 69 70 70 69 68 69 69 72 73 73 71 70 70 63 62 64 66 70 70 69 68 71 70 70 73 71 68 66
64 62 62 64 66 67 66 65 64 66 65 70 70 69 70 75 76 75 75 72 71 73 74 77 74 71 70 69 59 65 67 68 67 73 71 72 74 74 75 70 70 69 73
70 68 67 69 69 72 71 70 70 70 70 74 74 73 74 79 81 76 75 77 77 78 74 73 72 76 74 66 67 67 74 76 77 78 77 78 78 78 77 76 76 80 82
72 73 75 76 75 75 77 76 76 75 75 76 78 79 80 84 83 79 79 79 81 76 70 73 74 76 75 72 75 70 78 79 84 87 82 80 82 84 83 85 87 90 90
80 80 81 77 79 80 80 80 82 80 78 80 84 86 82 80 75 77 76 81 76 72 74 75 76 73 70 71 68 72 82 87 89 92 92 87 86 87 87 90 91 87 80
87 85 86 85 84 85 84 84 86 84 83 84 85 80 79 78 75 77 83 80 78 74 74 74 75 74 74 72 80 84 86 91 92 98 94 87 85 87 91 92 87 74 66
89 90 91 90 86 87 88 86 85 82 84 85 74 67 78 75 80 83 82 77 76 78 77 76 77 74 73 79 84 87 92 99 102 107 91 83 84 88 89 84 71 64 60
81 87 90 89 87 84 89 87 82 81 72 73 65 78 74 78 80 80 73 76 79 81 81 75 75 76 75 83 87 91 98 103 109 94 85 86 87 85 78 68 62 57 54
68 74 76 79 81 79 77 75 69 51 56 80 76 64 76 78 75 76 78 80 80 78 66 69 74 76 81 83 89 95 102 108 100 88 90 90 86 80 70 63 58 54 50
52 53 59 51 55 63 60 55 32 42 72 94 98 84 81 81 77 79 77 72 71 67 71 72 73 78 86 91 94 98 105 110 109 102 95 89 82 71 65 60 57 54 50
60 50 33 28 53 51 51 39 41 76 86 86 90 94 89 84 79 78 73 69 72 72 69 70 75 84 86 91 97 103 110 112 115 97 92 84 74 67 62 58 55 51 47
47 28 52 52 73 74 66 48 68 71 84 97 94 93 90 86 82 76 77 73 75 67 70 73 78 85 89 94 101 106 111 115 111 92 84 76 67 61 59 56 49 45 41
30 41 54 62 72 79 81 73 71 79 80 86 88 88 81 83 79 71 72 75 67 67 76 79 87 90 93 98 106 107 110 113 95 85 78 67 61 56 51 49 44 41 38
43 54 66 68 67 70 71 71 78 80 80 87 83 81 81 64 66 68 70 70 66 66 75 86 86 91 97 101 102 105 115 96 88 79 70 61 57 52 47 45 41 38 35
59 65 64 64 59 59 59 66 70 73 77 83 78 79 65 65 68 62 68 70 72 79 84 84 89 94 98 102 103 107 112 89 80 74 64 57 53 49 47 45 40 36 32
60 57 57 53 53 53 57 67 67 71 76 78 80 71 70 67 65 66 63 71 76 80 84 88 92 95 96 97 99 108 92 81 75 69 60 55 50 48 46 43 40 35 31
55 38 33 36 37 38 48 54 67 71 74 71 67 67 60 64 70 70 73 79 84 85 87 92 97 98 97 99 107 95 81 76 72 64 55 51 49 48 46 43 40 35 30
48 36 33 42 41 41 44 46 56 63 66 56 60 67 62 67 73 78 80 84 88 91 92 94 96 96 97 101 100 84 76 72 69 57 51 46 46 46 45 42 39 34 29
51 46 38 49 54 55 52 53 56 55 56 59 68 71 73 74 79 82 85 89 91 92 94 97 98 100 100 107 92 81 73 68 63 53 47 43 43 42 42 41 37 33 29
59 54 55 54 54 55 59 57 59 63 66 70 71 74 79 82 83 85 91 97 98 96 97 96 97 103 103 90 80 73 69 66 59 49 43 40 41 40 40 39 36 32 29
Wind_Direction
257 259 264 270 278 286 291 296 303 306 306 310 316 320 324 326 328 329 329 331 332 333 334 335 334 335 335 333 332 328 329 330 329 325 318 323 309 300 300 308 300 288 284
261 259 264 274 279 285 289 295 298 299 301 305 312 316 319 324 325 325 326 327 327 330 331 333 332 333 333 331 332 329 326 328 328 329 324 322 310 295 289 287 292 290 293
262 266 266 270 276 282 286 290 295 298 300 303 309 313 318 320 321 321 322 323 325 327 330 331 330 330 331 328 330 326 324 323 326 327 323 316 312 303 289 288 294 286 290
264 267 269 272 277 281 284 288 293 296 299 302 307 310 314 315 316 317 318 319 321 323 325 327 328 328 328 326 326 322 322 323 322 323 319 312 308 297 292 298 298 297 291
261 266 267 271 274 278 282 286 289 294 297 301 305 307 310 310 310 312 315 317 319 320 322 322 321 324 324 323 321 320 320 319 317 319 317 307 309 305 297 300 304 300 292
261 265 270 271 274 277 280 284 288 291 294 297 300 303 305 306 307 309 311 313 316 318 318 319 322 322 322 322 320 318 316 315 315 317 314 312 306 299 301 302 302 294 288
263 266 270 273 274 276 279 283 286 289 292 294 297 300 303 303 305 307 309 311 315 316 316 319 319 320 319 319 314 311 316 314 312 314 314 304 308 305 303 305 302 298 295
260 263 266 270 273 275 277 280 283 285 289 291 295 298 301 301 303 305 307 308 310 312 314 317 318 316 316 316 305 309 311 314 311 312 312 308 308 307 307 305 301 301 302
262 263 264 266 269 273 276 278 281 284 288 290 294 297 299 300 302 302 304 307 309 314 317 318 316 315 315 311 310 305 308 314 316 316 313 312 309 308 307 307 304 304 301
258 260 264 268 270 273 276 279 282 284 287 291 293 296 297 297 298 299 301 307 311 314 315 314 313 313 313 313 314 308 312 313 315 317 315 312 311 309 308 307 306 305 304
250 254 259 261 265 268 272 276 279 284 288 290 292 292 293 295 297 297 302 307 310 311 313 311 311 310 312 312 310 312 312 315 316 315 314 313 312 311 308 307 307 306 303
254 254 256 259 262 266 270 274 278 283 287 289 292 291 289 294 293 295 301 304 307 308 308 307 307 307 309 313 314 316 316 320 318 320 318 313 312 311 311 310 309 306 303
256 258 258 258 260 264 270 273 279 285 288 289 289 281 287 288 290 296 300 303 303 305 304 305 307 310 315 316 317 318 320 322 322 321 316 315 314 313 313 312 310 308 304
265 264 264 265 265 266 268 272 280 284 289 284 273 280 282 292 293 296 296 299 299 301 303 309 312 315 315 316 318 319 321 322 322 322 317 315 315 315 314 313 314 312 307
271 266 267 267 268 269 270 273 278 296 277 278 275 274 284 286 288 290 294 296 297 305 307 308 312 315 316 318 318 320 322 326 326 320 316 317 319 319 317 317 316 313 308
303 273 269 275 280 273 271 270 266 269 240 251 264 276 282 285 287 288 291 300 303 301 303 312 312 314 315 316 316 317 322 325 323 319 319 319 321 319 317 318 318 315 311
294 280 281 229 285 256 263 243 218 232 233 250 257 270 280 282 284 289 292 294 293 302 308 310 313 313 312 312 315 318 318 320 323 320 320 321 321 320 318 318 316 312 310
269 256 273 207 212 238 248 232 226 234 248 254 260 264 274 278 283 290 291 296 297 303 308 308 307 308 311 310 314 317 321 319 321 320 320 321 319 318 316 315 313 313 310
213 223 243 247 235 246 245 232 231 235 245 256 262 266 274 279 286 287 282 292 298 301 298 297 304 307 306 308 312 317 320 320 320 319 320 319 318 317 316 317 316 316 314
240 236 242 249 260 255 242 234 234 242 250 255 261 266 278 284 289 289 283 292 298 296 292 302 303 303 304 309 314 318 321 320 319 319 320 318 317 317 319 320 319 319 316
259 270 267 261 258 249 241 233 233 239 249 257 256 268 276 282 282 285 290 296 297 295 297 297 301 305 307 310 313 316 318 318 319 320 319 317 318 319 322 324 323 323 317
266 262 258 257 258 255 246 233 234 241 249 254 258 263 271 278 285 286 286 286 290 290 293 298 300 307 311 313 315 315 316 318 319 320 318 318 319 321 322 324 324 326 320
252 245 243 240 246 259 254 252 246 247 253 254 262 268 280 284 286 287 284 284 291 292 292 297 298 302 309 313 314 316 316 318 320 320 316 316 318 320 323 324 324 325 321
240 237 268 265 278 283 275 266 259 261 263 264 265 262 272 281 280 285 284 287 291 291 297 300 303 307 309 311 314 314 317 319 320 315 311 313 317 321 322 324 322 322 323
245 250 260 267 271 271 272 278 268 263 267 274 273 275 277 280 280 284 288 290 293 298 300 302 305 307 307 310 311 313 315 317 318 311 307 310 314 320 322 322 322 321 324
245 246 253 253 255 258 260 262 265 269 269 270 272 274 277 280 282 287 291 291 291 296 298 298 302 302 306 308 309 310 314 316 316 306 303 306 311 316 322 322 322 321 321
Height
10960 10960 10959 10959 10958 10958 10958 10958 10958 10954 10951 10949 10949 10948 10944 10938 10933 10926 10922 10919 10915 10909 10903 10898 10893 10890 10886 10881 10875 10868 10861 10855 10854 10849 10844 10837 10831 10825 10819 10816 10815 10815 10815
10952 10953 10953 10952 10952 10952 10951 10950 10951 10950 10946 10945 10943 10940 10937 10933 10927 10921 10913 10908 10904 10900 10895 10888 10881 10877 10873 10869 10864 10857 10850 10843 10837 10833 10828 10824 10820 10814 10809 10804 10800 10798 10796
10944 10944 10945 10944 10944 10944 10943 10942 10940 10938 10936 10935 10932 10930 10926 10922 10919 10914 10908 10900 10893 10887 10883 10879 10873 10866 10860 10856 10851 10845 10837 10830 10823 10818 10813 10808 10804 10803 10797 10794 10792 10788 10781
10935 10935 10935 10935 10936 10935 10934 10933 10932 10929 10925 10923 10922 10920 10918 10915 10910 10905 10900 10895 10888 10880 10874 10869 10864 10858 10851 10844 10837 10831 10825 10818 10811 10805 10798 10792 10789 10787 10783 10780 10775 10769 10762
10927 10925 10925 10925 10925 10924 10924 10924 10922 10921 10917 10913 10912 10909 10907 10905 10900 10897 10892 10885 10879 10872 10865 10858 10853 10848 10840 10833 10824 10818 10809 10801 10793 10787 10781 10776 10773 10770 10766 10759 10752 10745 10736
10917 10916 10914 10914 10913 10912 10912 10913 10911 10911 10909 10906 10904 10901 10898 10893 10887 10885 10881 10875 10868 10861 10855 10847 10838 10833 10827 10818 10808 10800 10795 10786 10777 10773 10766 10760 10755 10752 10746 10740 10733 10725 10716
10905 10905 10902 10902 10901 10899 10899 10900 10901 10899 10897 10893 10892 10890 10886 10879 10874 10871 10869 10863 10856 10849 10842 10835 10827 10820 10813 10806 10798 10789 10781 10772 10765 10757 10750 10742 10735 10728 10722 10713 10706 10698 10689
10889 10892 10890 10888 10886 10885 10887 10887 10887 10886 10886 10879 10878 10878 10875 10866 10861 10859 10853 10850 10845 10839 10830 10822 10813 10807 10799 10792 10781 10774 10766 10759 10754 10744 10734 10724 10716 10707 10699 10692 10683 10676 10666
10869 10872 10874 10873 10873 10871 10872 10871 10871 10871 10871 10867 10866 10865 10862 10852 10846 10841 10837 10833 10828 10820 10812 10804 10796 10789 10782 10777 10768 10758 10749 10739 10731 10723 10713 10704 10696 10687 10677 10667 10657 10650 10642
10856 10854 10855 10857 10859 10858 10854 10856 10855 10857 10858 10856 10851 10849 10846 10837 10831 10825 10820 10816 10810 10805 10798 10790 10781 10772 10764 10757 10748 10739 10731 10721 10711 10701 10692 10684 10673 10661 10650 10638 10628 10615 10602
10840 10839 10837 10840 10841 10841 10842 10841 10838 10843 10846 10845 10837 10834 10830 10825 10816 10807 10805 10802 10798 10791 10785 10777 10769 10761 10752 10742 10733 10724 10713 10702 10690 10680 10670 10659 10648 10637 10624 10611 10598 10586 10573
10822 10827 10826 10826 10825 10827 10829 10828 10827 10833 10833 10830 10825 10813 10813 10813 10801 10793 10793 10786 10783 10776 10772 10764 10755 10747 10737 10727 10718 10708 10698 10687 10673 10659 10645 10634 10621 10610 10597 10582 10569 10557 10548
10805 10808 10811 10814 10817 10817 10816 10818 10820 10823 10820 10817 10815 10804 10799 10796 10783 10781 10776 10772 10766 10761 10756 10748 10739 10730 10721 10712 10702 10692 10680 10668 10653 10637 10621 10611 10599 10585 10571 10556 10545 10534 10524
10791 10790 10789 10798 10805 10812 10806 10809 10814 10813 10804 10805 10803 10788 10782 10780 10771 10766 10762 10756 10750 10746 10739 10731 10722 10714 10705 10697 10686 10675 10661 10647 10633 10615 10601 10588 10577 10564 10551 10537 10525 10515 10506
10771 10772 10775 10776 10780 10789 10795 10800 10807 10813 10800 10791 10774 10779 10775 10764 10760 10752 10748 10741 10735 10729 10721 10714 10707 10700 10690 10680 10669 10656 10643 10628 10610 10597 10584 10569 10554 10539 10526 10518 10509 10501 10494
10755 10759 10764 10769 10772 10774 10783 10792 10801 10813 10793 10767 10769 10765 10753 10749 10744 10739 10732 10726 10719 10714 10707 10700 10693 10685 10676 10665 10653 10641 10627 10614 10601 10583 10565 10548 10534 10522 10512 10503 10495 10486 10479
10749 10750 10755 10766 10770 10759 10771 10775 10784 10794 10782 10762 10750 10744 10738 10734 10727 10723 10719 10715 10708 10700 10692 10684 10678 10670 10661 10649 10638 10626 10611 10597 10582 10564 10547 10532 10518 10507 10499 10491 10484 10476 10468
10744 10732 10737 10755 10741 10748 10757 10753 10756 10753 10745 10733 10732 10730 10725 10718 10712 10708 10703 10699 10692 10686 10677 10669 10665 10656 10646 10634 10622 10608 10594 10581 10567 10549 10534 10521 10510 10499 10489 10481 10474 10467 10459
10723 10719 10718 10726 10728 10731 10734 10736 10730 10724 10724 10715 10713 10712 10704 10700 10699 10694 10689 10685 10677 10669 10664 10658 10650 10640 10631 10622 10608 10596 10581 10566 10551 10538 10524 10511 10502 10492 10482 10473 10464 10457 10450
10701 10700 10703 10704 10701 10701 10704 10706 10705 10703 10699 10698 10698 10693 10693 10688 10682 10678 10675 10669 10663 10655 10651 10642 10633 10624 10615 10605 10592 10579 10564 10550 10538 10525 10512 10501 10492 10483 10473 10464 10456 10449 10443
10679 10679 10679 10679 10678 10677 10680 10680 10678 10679 10678 10677 10677 10677 10675 10672 10666 10661 10658 10652 10647 10639 10634 10627 10617 10608 10597 10588 10576 10563 10552 10539 10525 10512 10500 10490 10482 10473 10464 10456 10449 10442 10436
10656 10659 10661 10661 10663 10665 10665 10662 10661 10662 10659 10657 10658 10660 10655 10653 10649 10644 10642 10638 10631 10624 10615 10608 10599 10592 10580 10573 10561 10549 10537 10526 10513 10500 10489 10480 10473 10465 10457 10450 10442 10436 10430
10643 10644 10644 10645 10647 10650 10650 10649 10647 10643 10640 10642 10641 10639 10640 10637 10633 10628 10624 10620 10613 10607 10600 10591 10584 10579 10567 10557 10546 10531 10520 10509 10498 10488 10480 10473 10466 10458 10450 10443 10436 10431 10425
10626 10626 10629 10631 10630 10632 10634 10635 10632 10629 10626 10624 10625 10622 10621 10619 10615 10610 10603 10600 10595 10586 10579 10569 10560 10556 10549 10540 10530 10519 10508 10497 10487 10479 10473 10466 10459 10451 10444 10438 10432 10426 10421
10612 10613 10613 10613 10616 10615 10614 10614 10613 10611 10609 10608 10606 10606 10607 10604 10597 10592 10586 10576 10572 10565 10558 10549 10539 10533 10530 10522 10514 10506 10497 10488 10478 10470 10465 10459 10452 10446 10439 10433 10427 10421 10416
10595 10596 10596 10596 10599 10600 10599 10600 10598 10594 10594 10592 10589 10587 10584 10581 10579 10573 10566 10557 10553 10547 10541 10534 10523 10519 10515 10506 10498 10490 10483 10475 10467 10461 10456 10451 10446 10440 10434 10428 10422 10416 10411